星链-2092 (STARLINK-2092 )

导读

STARLINK-2092是美国太空探索技术公司(SpaceX)星链计划中的低轨互联网通信卫星,于2021年1月20日发射入轨。它是星链星座的组成单元,旨在为全球提供全天候、低延迟的宽带互联网覆盖服务,补充全球网络覆盖缺口,进一步推进星链星座的组网进程。

Basic Information
目录编号:
47373
目录名称:
STARLINK-2092
国际标识:
2021-005AA
轨道中心:
EARTH
卫星名称:
星链-2092
卫星全名:
星链-2092 (STARLINK-2092 )
卫星状态:
在轨 (已飞行2060 天)
发射日期:
2021-01-20 UTC
国别 :
美国 (US)
星等 :
--
This satellite is enrolled in the Space Conjunction Data Service (SCDS) and the current flight risk assessment level is: No High Risk
Orbit Information
数据来源 国际轨道数据 AOE轨道数据
星历时间 2026-09-10T17:42:46+0800
1天前
查看轨道信息
2026-09-10T07:00:00+0800
1天前
查看轨道信息
半长轴 6848.904km 6848.81km
偏心率 0.0001321 0.0001423
轨道倾角 53.159° 53.160°
近地点辐角 72.744° 74.079°
升交点赤经 282.878° 284.956°
平近点角 287.371° 343.360°
近地点 469.862km 469.698km
远地点 471.672km 471.648km
周期 94.014分钟 94.012分钟
每日圈数 15.31691 15.317225
Detailed Information
固有亮度:
5
最大亮度:
2.5
卫星平台:
Starlink V1.0
覆盖范围:
全球
运营商:
太空探索技术公司
运营商所在国:
美国
制造商(研发单位):
太空探索技术公司
制造商所在国:
美国
使用方式:
暂无
Satellite Introduction
星链(Starlink)计划是由太空探索技术公司(SpaceX)提出的一个巨型低轨卫星互联网星座项目,计划在2019年至2024年间在太空搭建由约1.2万颗卫星组成的“星链”网络,其中1584颗将部署在地球上空550千米处的近地轨道,并从2020年开始工作。该卫星仍在工作。
2D Orbit Map
3D Orbit Map
Orbit Altitude Analysis Chart
Orbit Inclination Analysis Chart
Orbit Comprehensive Analysis Chart
View Comprehensive Chart
Miss Distance Evolution Trend with All Objects
Collision Probability Evolution Trend with All Objects